Weather History for KRCE - February, 2013

Change the Weather History Date:

Wednesday, February 27, 2013

  Actual Average (KOKC) Record (KOKC)
Temperature  
Mean Temperature 32 °F 47 °F  
Max Temperature 41 °F 58 °F 83 °F (1918)
Min Temperature 24 °F 36 °F 10 °F (2002)
Degree Days  
Heating Degree Days 32 18  
Month to date heating degree days 579  
Since 1 July heating degree days 2732  
Moisture  
Dew Point 26 °F    
Average Humidity 75    
Maximum Humidity 93    
Minimum Humidity 53    
Precipitation  
Precipitation 0.00 in 0.07 in 1.32 in (1966)
Month to date precipitation 1.51  
Year to date precipitation 2.90  
Snow  
Snow 0.00 in 0.10 in 5.20 in (1949)
Month to date snowfall 1.4  
Since 1 July snowfall 6.7  
Snow Depth -    
Sea Level Pressure  
Sea Level Pressure 30.12 in    
Wind  
Wind Speed 13 mph (NNW)    
Max Wind Speed 25 mph    
Max Gust Speed 36 mph    
Visibility 10 miles    
Events      
T = Trace of Precipitation, MM = Missing Value Source: NWS Daily Summary

Daily Weather History Graph

Daily Weather History Graph

Search for Another Location

Airport or City:

Trip Planner

Search our weather history database for the weather conditions in past years. The results will help you decide how hot, cold, wet, or windy it might be!

Date:

Astronomy

Feb. 27, 2013 Rise Set
Actual Time 7:03 AM CST 6:25 PM CST
Civil Twilight 6:37 AM CST 6:50 PM CST
Nautical Twilight 6:08 AM CST 7:20 PM CST
Astronomical Twilight 5:38 AM CST 7:49 PM CST
Moon 8:40 PM CST (2/27) 7:45 AM CST (2/27)
Length of Visible Light 12h 13m
Length of Day
11h 21m
Waning Gibbous, 96% of the Moon is Illuminated
Feb 27
Waning Gibbous
Mar 4
Last Quarter
Mar 11
New
Mar 19
First Quarter
Mar 27
Full

Hourly Weather History & Observations

Time (CST) Temp. Windchill Dew Point Humidity Pressure Visibility Wind Dir Wind Speed Gust Speed Precip Events Conditions
12:15 AM 30.2 °F 22.6 °F 26.6 °F 86% 29.93 in 10.0 mi NNW 8.1 mph - N/A   Scattered Clouds
12:35 AM 30.2 °F 21.9 °F 26.6 °F 86% 29.95 in 10.0 mi NNW 9.2 mph - N/A   Mostly Cloudy
12:55 AM 30.2 °F 20.8 °F 26.6 °F 86% 29.96 in 10.0 mi NNW 11.5 mph - N/A   Overcast
1:15 AM 30.2 °F 20.8 °F 26.6 °F 86% 29.96 in 10.0 mi NNW 11.5 mph - N/A   Overcast
1:35 AM 30.2 °F 21.9 °F 26.6 °F 86% 29.97 in 10.0 mi NNW 9.2 mph - N/A   Overcast
1:55 AM 30.2 °F 21.3 °F 26.6 °F 86% 29.99 in 10.0 mi NNW 10.4 mph - N/A   Overcast
2:15 AM 30.2 °F 21.3 °F 26.6 °F 86% 29.99 in 10.0 mi North 10.4 mph - N/A   Overcast
2:55 AM 30.2 °F 21.9 °F 26.6 °F 86% 29.98 in 10.0 mi North 9.2 mph - N/A   Overcast
3:15 AM 30.2 °F 20.2 °F 26.6 °F 86% 29.98 in 10.0 mi NNW 12.7 mph 19.6 mph N/A   Overcast
3:35 AM 30.2 °F 20.2 °F 26.6 °F 86% 29.99 in 10.0 mi NNW 12.7 mph - N/A   Overcast
3:55 AM 28.4 °F 19.1 °F 26.6 °F 93% 29.99 in 10.0 mi NNW 10.4 mph - N/A   Overcast
4:15 AM 28.4 °F 20.4 °F 26.6 °F 93% 30.00 in 10.0 mi NNW 8.1 mph - N/A   Overcast
4:35 AM 28.4 °F 19.7 °F 24.8 °F 86% 30.00 in 10.0 mi NNW 9.2 mph - N/A   Mostly Cloudy
4:55 AM 28.4 °F 19.7 °F 24.8 °F 86% 30.00 in 10.0 mi NNW 9.2 mph - N/A   Scattered Clouds
5:15 AM 26.6 °F 16.2 °F 24.8 °F 93% 30.02 in 10.0 mi NNW 11.5 mph - N/A   Clear
5:55 AM 26.6 °F 15.2 °F 24.8 °F 93% 30.04 in 10.0 mi NNW 13.8 mph 19.6 mph N/A   Clear
6:15 AM 26.6 °F 15.7 °F 24.8 °F 93% 30.04 in 10.0 mi NNW 12.7 mph - N/A   Clear
6:35 AM 26.6 °F 18.2 °F 24.8 °F 93% 30.04 in 9.0 mi NNW 8.1 mph - N/A   Clear
6:55 AM 24.8 °F 14.6 °F 23.0 °F 93% 30.05 in 10.0 mi NNW 10.4 mph - N/A   Clear
7:15 AM 26.6 °F 16.2 °F 24.8 °F 93% 30.05 in 7.0 mi NW 11.5 mph 16.1 mph N/A   Clear
7:35 AM 26.6 °F 15.7 °F 24.8 °F 93% 30.07 in 7.0 mi NW 12.7 mph - N/A   Clear
7:55 AM 28.4 °F 18.0 °F 24.8 °F 86% 30.09 in 7.0 mi NW 12.7 mph 18.4 mph N/A   Clear
8:15 AM 28.4 °F 18.0 °F 24.8 °F 86% 30.09 in 8.0 mi NNW 12.7 mph - N/A   Clear
8:35 AM 30.2 °F 19.3 °F 24.8 °F 80% 30.10 in 8.0 mi NW 15.0 mph - N/A   Clear
8:55 AM 32.0 °F 21.2 °F 24.8 °F 75% 30.11 in 8.0 mi NW 16.1 mph - N/A   Clear
9:15 AM 32.0 °F 23.0 °F 24.8 °F 75% 30.11 in 10.0 mi NNW 11.5 mph 18.4 mph N/A   Clear
10:15 AM 35.6 °F 27.1 °F 26.6 °F 70% 30.13 in 10.0 mi NW 12.7 mph - N/A   Clear
10:35 AM 37.4 °F 28.5 °F 24.8 °F 60% 30.14 in 10.0 mi NNW 15.0 mph 19.6 mph N/A   Clear
10:55 AM 37.4 °F 27.8 °F 26.6 °F 65% 30.14 in 10.0 mi NNW 17.3 mph 27.6 mph N/A   Clear
11:15 AM 37.4 °F 27.5 °F 26.6 °F 65% 30.15 in 10.0 mi NW 18.4 mph 24.2 mph N/A   Clear
11:35 AM 37.4 °F 27.5 °F 26.6 °F 65% 30.15 in 10.0 mi NNW 18.4 mph 25.3 mph N/A   Clear
11:55 AM 39.2 °F 29.6 °F 26.6 °F 61% 30.15 in 10.0 mi NNW 19.6 mph 25.3 mph N/A   Clear
12:15 PM 39.2 °F 29.0 °F 24.8 °F 56% 30.16 in 10.0 mi NNW 21.9 mph 26.5 mph N/A   Clear
12:35 PM 41.0 °F 32.2 °F 26.6 °F 57% 30.16 in 10.0 mi NNW 18.4 mph 26.5 mph N/A   Clear
12:55 PM 41.0 °F 32.5 °F 24.8 °F 53% 30.15 in 10.0 mi NNW 17.3 mph 27.6 mph N/A   Clear
1:15 PM 41.0 °F 31.4 °F 24.8 °F 53% 30.15 in 10.0 mi NNW 21.9 mph 29.9 mph N/A   Clear
1:35 PM 41.0 °F 30.7 °F 26.6 °F 57% 30.15 in 10.0 mi NNW 25.3 mph 29.9 mph N/A   Clear
1:55 PM 41.0 °F 31.1 °F 26.6 °F 57% 30.15 in 10.0 mi NW 23.0 mph 28.8 mph N/A   Clear
2:15 PM 41.0 °F 31.4 °F 24.8 °F 53% 30.15 in 10.0 mi NNW 21.9 mph 28.8 mph N/A   Clear
2:35 PM 41.0 °F 30.9 °F 26.6 °F 57% 30.16 in 10.0 mi NNW 24.2 mph 29.9 mph N/A   Clear
2:55 PM 41.0 °F 30.9 °F 26.6 °F 57% 30.16 in 10.0 mi NNW 24.2 mph 33.4 mph N/A   Clear
3:15 PM 41.0 °F 31.4 °F 24.8 °F 53% 30.16 in 10.0 mi NNW 21.9 mph 33.4 mph N/A   Clear
3:35 PM 41.0 °F 30.9 °F 24.8 °F 53% 30.17 in 10.0 mi NNW 24.2 mph 33.4 mph N/A   Clear
3:55 PM 41.0 °F 31.4 °F 24.8 °F 53% 30.18 in 10.0 mi NW 21.9 mph 35.7 mph N/A   Partly Cloudy
4:15 PM 41.0 °F 31.1 °F 24.8 °F 53% 30.18 in 10.0 mi NNW 23.0 mph 28.8 mph N/A   Partly Cloudy
4:35 PM 41.0 °F 30.9 °F 26.6 °F 57% 30.18 in 10.0 mi NNW 24.2 mph 28.8 mph N/A   Clear
4:55 PM 39.2 °F 29.0 °F 26.6 °F 61% 30.18 in 10.0 mi NW 21.9 mph 28.8 mph N/A   Partly Cloudy
5:15 PM 39.2 °F 30.2 °F 26.6 °F 61% 30.18 in 10.0 mi NNW 17.3 mph 26.5 mph N/A   Partly Cloudy
5:35 PM 39.2 °F 29.8 °F 26.6 °F 61% 30.18 in 10.0 mi NNW 18.4 mph 26.5 mph N/A   Clear
5:55 PM 37.4 °F 27.8 °F 24.8 °F 60% 30.19 in 10.0 mi NNW 17.3 mph 26.5 mph N/A   Clear
6:15 PM 37.4 °F 29.3 °F 24.8 °F 60% 30.20 in 10.0 mi NNW 12.7 mph - N/A   Clear
6:35 PM 35.6 °F 28.6 °F 24.8 °F 65% 30.21 in 10.0 mi NNW 9.2 mph - N/A   Clear
6:55 PM 33.8 °F 26.4 °F 26.6 °F 75% 30.21 in 10.0 mi NNW 9.2 mph - N/A   Clear
7:15 PM 32.0 °F 24.8 °F 26.6 °F 80% 30.21 in 10.0 mi NNW 8.1 mph - N/A   Clear
7:35 PM 33.8 °F 26.4 °F 24.8 °F 70% 30.22 in 10.0 mi NNW 9.2 mph - N/A   Partly Cloudy
7:55 PM 32.0 °F 24.8 °F 24.8 °F 75% 30.22 in 10.0 mi NNW 8.1 mph - N/A   Partly Cloudy
8:15 PM 32.0 °F 24.8 °F 26.6 °F 80% 30.22 in 10.0 mi NW 8.1 mph - N/A   Clear
8:55 PM 32.0 °F 23.6 °F 28.4 °F 87% 30.23 in 10.0 mi NW 10.4 mph - N/A   Clear
9:15 PM 32.0 °F 23.0 °F 28.4 °F 87% 30.22 in 10.0 mi NNW 11.5 mph - N/A   Clear
9:35 PM 32.0 °F 22.5 °F 28.4 °F 87% 30.22 in 10.0 mi NW 12.7 mph 18.4 mph N/A   Clear
9:55 PM 32.0 °F 22.5 °F 28.4 °F 87% 30.22 in 10.0 mi NW 12.7 mph - N/A   Clear
10:15 PM 32.0 °F 23.0 °F 28.4 °F 87% 30.22 in 10.0 mi NW 11.5 mph 16.1 mph N/A   Clear
10:35 PM 32.0 °F 23.0 °F 28.4 °F 87% 30.23 in 10.0 mi NW 11.5 mph 18.4 mph N/A   Clear
10:55 PM 32.0 °F 22.5 °F 28.4 °F 87% 30.23 in 10.0 mi NW 12.7 mph - N/A   Clear
11:15 PM 32.0 °F 23.0 °F 26.6 °F 80% 30.23 in 10.0 mi NNW 11.5 mph - N/A   Clear
11:35 PM 32.0 °F 22.5 °F 26.6 °F 80% 30.23 in 10.0 mi NNW 12.7 mph 17.3 mph N/A   Clear